[[{"header":{"parameterUnit":"m.s-1","parameterCategory":1,"la1":30.2991,"la2":30.254,"lo1":-89.0895,"lo2":-89.0444,"dy":0.0017,"dx":0.0017,"nx":28,"ny":28,"refTime":"2024-02-16T09:00:00:Z","depth":0,"parameterNumber":2,"parameterNumberName":"U-component_of_WINDS"},"data":[0,0,0,0,0,0,0,0,0,0,0,0,0,0,0,0,0,0,0,0,0,0,0,0,0,0,0,0,0,0,0,0,0,0,0,0,0,0,0,0,0,0,0,0,0,0,0,0,0,0,0,0,0,0,0,0,0,0,-0.634,-0.634,0,-0.6314,-0.6314,-0.6313,-0.6258,-0.6257,-0.6256,-0.6255,-0.623,-0.623,-0.6231,0,0,0,0,0,0,0,0,0,0,0,0,0,-0.6343,-0.6343,-0.634,-0.634,-0.6339,-0.6314,-0.6314,-0.6313,-0.6258,-0.6257,-0.6256,-0.6254,-0.623,-0.623,-0.6231,0,0,0,0,0,0,0,0,0,0,0,0,0,-0.6332,-0.6343,-0.634,-0.6309,-0.6306,-0.6314,-0.6314,-0.6313,-0.6259,-0.6257,-0.6255,-0.6254,-0.623,-0.623,-0.6231,-0.6268,0,0,-0.6233,-0.6233,0,0,0,0,0,0,0,0,-0.6333,-0.6332,-0.6314,-0.6311,-0.6307,-0.6288,-0.6306,-0.6298,-0.6259,-0.6277,-0.6255,-0.6253,-0.6251,-0.6249,-0.6248,-0.6267,-0.6266,-0.6233,-0.6233,-0.6233,-0.6233,0,0,0,0,0,0,0,-0.6333,-0.6333,-0.633,-0.6313,-0.631,-0.6296,-0.6293,-0.6304,-0.6273,-0.6275,-0.6271,-0.6268,-0.6249,-0.6248,-0.6247,-0.6265,-0.6233,-0.6233,-0.6234,-0.6234,-0.6313,-0.6315,0,0,0,0,0,0,-0.6338,-0.6334,-0.633,-0.6329,-0.6316,-0.6298,-0.6294,-0.6296,-0.6273,-0.6268,-0.627,-0.6266,-0.6248,-0.6247,-0.6246,-0.6288,-0.6233,-0.6234,-0.6234,-0.6312,-0.6314,-0.6316,0,0,0,0,0,0,-0.6339,-0.6339,-0.6331,-0.633,-0.6328,-0.6299,-0.6302,-0.6296,-0.6295,-0.6269,-0.6264,-0.6275,-0.6246,-0.6245,-0.6263,-0.6287,-0.6234,-0.6235,-0.6309,-0.6312,-0.6315,-0.6373,0,0,0,0,0,0,-0.6339,-0.6339,-0.6353,-0.6331,-0.6328,-0.6348,-0.6303,-0.6297,-0.6296,-0.6291,-0.6272,-0.6268,-0.6245,-0.6262,-0.6264,-0.6286,-0.6235,-0.6307,-0.6311,-0.6314,-0.6369,-0.6377,-0.6384,0,0,0,0,0,-0.6339,-0.637,-0.6354,-0.6354,-0.6345,-0.635,-0.6349,-0.6321,-0.6298,-0.6312,-0.6295,-0.6268,-0.6284,-0.6265,-0.6265,-0.6289,-0.6306,-0.631,-0.6314,-0.6365,-0.6375,-0.6384,0,0,0,0,0,0,-0.6396,-0.6367,-0.6348,-0.6373,-0.6364,-0.6341,-0.6357,-0.6333,-0.6331,-0.6327,-0.6293,-0.629,-0.6312,-0.6302,-0.6281,-0.6324,-0.629,-0.6295,-0.6329,-0.6339,-0.6347,-0.6349,-0.6236,0,0,0,0,0,-0.6412,-0.6418,-0.6392,-0.6416,-0.6413,-0.6386,-0.6387,-0.6367,-0.6357,-0.6353,-0.6338,-0.6329,-0.6332,-0.6335,-0.6336,-0.6367,-0.6362,-0.6383,-0.6391,-0.6398,-0.6402,-0.6417,-0.6427,-0.6329,-0.6329,-0.6329,0,0,-0.6444,-0.6428,-0.6434,-0.6428,-0.6418,-0.6426,-0.6383,-0.6393,-0.6398,-0.6355,-0.637,-0.6359,-0.6347,-0.6371,-0.6381,-0.6364,-0.6428,-0.6403,-0.6408,-0.6409,-0.6423,-0.6432,-0.644,-0.6331,-0.6331,-0.633,0,0,-0.6506,-0.6495,-0.6514,-0.6506,-0.6492,-0.6474,-0.6479,-0.6458,-0.6449,-0.6464,-0.6431,-0.6437,-0.6443,-0.6436,-0.6433,-0.6493,-0.6468,-0.6494,-0.6536,-0.6551,-0.6559,-0.6565,-0.6587,-0.6595,-0.6499,-0.6499,-0.6499,0,-0.6547,-0.6557,-0.6527,-0.6539,-0.6537,-0.6497,-0.6516,-0.651,-0.6498,-0.6498,-0.6478,-0.6484,-0.6474,-0.6496,-0.6511,-0.651,-0.6514,-0.6496,-0.656,-0.6566,-0.6572,-0.6592,-0.66,-0.6502,-0.6502,-0.6501,-0.6501,0,-0.6609,-0.6616,-0.6633,-0.6622,-0.6622,-0.6638,-0.661,-0.6614,-0.6594,-0.6578,-0.6593,-0.6579,-0.6577,-0.6581,-0.6561,-0.66,-0.659,-0.6566,-0.6532,-0.6585,-0.6604,-0.6611,-0.6507,-0.6506,-0.6505,-0.6504,0,0,-0.6706,-0.6678,-0.6685,-0.6679,-0.6661,-0.6667,-0.6681,-0.6678,-0.6682,-0.6675,-0.6686,-0.6692,-0.6669,-0.6666,-0.6646,-0.6659,-0.6708,-0.6634,-0.6633,-0.6648,-0.675,-0.6768,-0.6777,-0.6691,-0.6692,-0.6693,-0.6751,0,-0.6764,-0.6786,-0.6759,-0.6787,-0.6793,-0.6755,-0.6768,-0.6758,-0.6744,-0.6747,-0.6731,-0.6736,-0.6706,-0.6704,-0.6716,-0.6699,-0.6728,-0.6695,-0.6701,-0.6702,-0.6706,-0.6787,-0.6806,-0.6861,-0.6758,-0.6759,-0.676,0,-0.6835,-0.6831,-0.6859,-0.6839,-0.6841,-0.6853,-0.6848,-0.6852,-0.6841,-0.6829,-0.6826,-0.6801,-0.6814,-0.6781,-0.6798,-0.6776,-0.6777,-0.677,-0.6771,-0.6771,-0.6734,-0.6789,-0.6878,-0.6886,-0.6771,-0.677,-0.6769,0,-0.6903,-0.6905,-0.6922,-0.6918,-0.6896,-0.6905,-0.6896,-0.6883,-0.6883,-0.6879,-0.6879,-0.6877,-0.6876,-0.6875,-0.6851,-0.6829,-0.6871,-0.6836,-0.6862,-0.6863,-0.6873,-0.6873,-0.6964,-0.6874,-0.6874,-0.6874,-0.6873,0,-0.6971,-0.699,-0.6952,-0.6963,-0.6983,-0.6952,-0.6973,-0.696,-0.6949,-0.6957,-0.6924,-0.6932,-0.6899,-0.6904,-0.6885,-0.6903,-0.6902,-0.6894,-0.6888,-0.6897,-0.6898,-0.6897,-0.6893,-0.6876,-0.6875,-0.6875,-0.6874,0,-0.7051,-0.7026,-0.7042,-0.702,-0.7014,-0.703,-0.7011,-0.702,-0.7003,-0.7014,-0.7014,-0.6988,-0.6992,-0.6967,-0.6967,-0.6954,-0.6981,-0.6969,-0.6984,-0.6981,-0.7008,-0.7006,-0.7102,-0.7113,-0.7016,-0.7017,-0.7018,0,-0.7095,-0.7109,-0.7088,-0.709,-0.7083,-0.7088,-0.7087,-0.7058,-0.7059,-0.7047,-0.7058,-0.7059,-0.7058,-0.7066,-0.7047,-0.7047,-0.7035,-0.7068,-0.7035,-0.7043,-0.7036,-0.7035,-0.7036,-0.7076,-0.7077,-0.7078,-0.7079,0,-0.7178,-0.7165,-0.7165,-0.7162,-0.7163,-0.7159,-0.7153,-0.7157,-0.7125,-0.7128,-0.7131,-0.713,-0.713,-0.7131,-0.7127,-0.7118,-0.7094,-0.7089,-0.7095,-0.7104,-0.7113,-0.7109,-0.7004,-0.7087,-0.7087,-0.7086,-0.7085,-0.7085,-0.7241,-0.7251,-0.7238,-0.724,-0.7232,-0.7227,-0.7234,-0.7218,-0.722,-0.7217,-0.72,-0.7206,-0.7195,-0.7186,-0.718,-0.7185,-0.7169,-0.7178,-0.718,-0.7183,-0.7188,-0.7112,-0.7184,-0.7184,-0.7184,-0.7184,-0.7183,0,-0.7322,-0.7311,-0.7313,-0.7305,-0.7307,-0.7283,-0.7275,-0.7278,-0.7284,-0.7275,-0.7275,-0.7279,-0.7281,-0.7262,-0.7261,-0.7269,-0.7257,-0.7269,-0.7269,-0.7267,-0.7202,-0.7197,-0.7279,-0.7279,-0.7279,-0.7279,-0.7279,-0.7279,-0.7364,-0.738,-0.7366,-0.7378,-0.7367,-0.7373,-0.737,-0.7366,-0.7359,-0.7364,-0.7365,-0.7353,-0.734,-0.7338,-0.7338,-0.7333,-0.7334,-0.735,-0.7341,-0.7281,-0.7272,-0.7263,-0.7258,-0.7351,-0.7351,-0.7405,-0.7406,-0.7406]},{"header":{"parameterUnit":"m.s-1","parameterCategory":1,"la1":30.2991,"la2":30.254,"lo1":-89.0895,"lo2":-89.0444,"dy":0.0017,"dx":0.0017,"nx":28,"ny":28,"refTime":"2024-02-16T09:00:00:Z","depth":0,"parameterNumber":3,"parameterNumberName":"V-component_of_WINDS"},"data":[0,0,0,0,0,0,0,0,0,0,0,0,0,0,0,0,0,0,0,0,0,0,0,0,0,0,0,0,0,0,0,0,0,0,0,0,0,0,0,0,0,0,0,0,0,0,0,0,0,0,0,0,0,0,0,0,0,0,0.2811,0.281,0,0.2755,0.2755,0.2754,0.2822,0.2825,0.2827,0.283,0.2766,0.2762,0.2758,0,0,0,0,0,0,0,0,0,0,0,0,0,0.2969,0.2966,0.2811,0.281,0.2809,0.2755,0.2755,0.2754,0.2822,0.2825,0.2828,0.2831,0.2767,0.2762,0.2757,0,0,0,0,0,0,0,0,0,0,0,0,0,0.2905,0.2964,0.2811,0.2837,0.2839,0.2756,0.2755,0.2754,0.2821,0.2825,0.2829,0.2832,0.2769,0.2763,0.2757,0.2643,0,0,0.2738,0.2735,0,0,0,0,0,0,0,0,0.2909,0.2899,0.2834,0.2835,0.2837,0.28,0.2787,0.2716,0.282,0.2827,0.283,0.2834,0.2773,0.2767,0.2748,0.264,0.2637,0.2738,0.2734,0.2731,0.273,0,0,0,0,0,0,0,0.2913,0.2902,0.2789,0.2833,0.2834,0.2849,0.2844,0.2774,0.2779,0.2827,0.2832,0.2825,0.2775,0.2754,0.2747,0.2637,0.2738,0.2732,0.2729,0.2726,0.2432,0.2428,0,0,0,0,0,0,0.2915,0.2905,0.279,0.2787,0.2883,0.2843,0.2838,0.2808,0.2781,0.278,0.2822,0.2828,0.2762,0.2754,0.2745,0.2611,0.2731,0.2726,0.2722,0.2436,0.2431,0.2427,0,0,0,0,0,0,0.2918,0.2904,0.2793,0.2847,0.2834,0.2837,0.2802,0.2804,0.2784,0.2777,0.2777,0.28,0.2765,0.2754,0.2669,0.2609,0.2723,0.2717,0.2441,0.2435,0.2429,0.234,0,0,0,0,0,0,0.2923,0.2905,0.2864,0.2846,0.2831,0.2718,0.2798,0.2801,0.2774,0.2782,0.2756,0.2755,0.2767,0.2677,0.2662,0.2603,0.2713,0.2446,0.2438,0.2431,0.2348,0.2332,0.2317,0,0,0,0,0,0.2928,0.2839,0.2861,0.2847,0.278,0.2715,0.2706,0.2724,0.2769,0.2726,0.2721,0.2756,0.2618,0.2668,0.2652,0.259,0.245,0.2441,0.2431,0.2355,0.2335,0.2318,0,0,0,0,0,0,0.2847,0.2837,0.2862,0.2765,0.274,0.2727,0.2673,0.2702,0.2662,0.2671,0.2692,0.2686,0.2595,0.2584,0.2639,0.2478,0.2541,0.2528,0.2489,0.2469,0.2454,0.2458,0.2708,0,0,0,0,0,0.2819,0.2769,0.2762,0.2677,0.2664,0.2671,0.2643,0.2659,0.2634,0.2623,0.2612,0.2584,0.2535,0.2502,0.2456,0.2347,0.2342,0.2296,0.2281,0.2268,0.2256,0.2197,0.2177,0.2396,0.2396,0.2396,0,0,0.2758,0.2746,0.2713,0.2661,0.2644,0.259,0.2661,0.2602,0.2561,0.2613,0.2533,0.2523,0.2494,0.2396,0.2353,0.2384,0.2195,0.2256,0.2246,0.2241,0.2186,0.2165,0.2146,0.2389,0.2391,0.2392,0,0,0.262,0.2607,0.2535,0.2517,0.2491,0.2496,0.2479,0.2461,0.2458,0.2378,0.2415,0.2367,0.2281,0.2258,0.2235,0.2089,0.2119,0.2074,0.1992,0.1935,0.1917,0.1902,0.1849,0.183,0.2062,0.2062,0.2062,0,0.2547,0.247,0.2494,0.2432,0.2407,0.2454,0.238,0.2361,0.232,0.2301,0.2337,0.2231,0.2214,0.2112,0.2076,0.2056,0.2036,0.2076,0.1918,0.1903,0.1889,0.1839,0.1819,0.2056,0.2057,0.2057,0.2058,0,0.2382,0.2328,0.2272,0.2235,0.2204,0.2136,0.2147,0.2112,0.2131,0.2131,0.2048,0.203,0.1981,0.1958,0.1974,0.1858,0.1878,0.1916,0.198,0.1863,0.1816,0.1797,0.2049,0.2051,0.2052,0.2053,0,0,0.2191,0.2168,0.2147,0.2131,0.2106,0.2064,0.1997,0.1952,0.1921,0.1891,0.1835,0.1762,0.1797,0.1771,0.1785,0.1735,0.162,0.1779,0.1779,0.1749,0.1489,0.146,0.1437,0.164,0.1636,0.1633,0.1491,0,0.2053,0.1941,0.196,0.185,0.18,0.1844,0.1786,0.1763,0.1761,0.1717,0.1714,0.1662,0.1713,0.1697,0.1649,0.1644,0.1567,0.1654,0.1585,0.1583,0.1591,0.1413,0.1382,0.1249,0.1473,0.147,0.1468,0,0.1877,0.1844,0.1729,0.1713,0.1692,0.164,0.16,0.1558,0.1532,0.1534,0.1506,0.1529,0.1461,0.1526,0.1431,0.149,0.1463,0.1456,0.1451,0.1444,0.1518,0.1401,0.1207,0.1186,0.1439,0.1441,0.1443,0,0.1749,0.1675,0.1597,0.1582,0.156,0.1523,0.1511,0.149,0.1462,0.1426,0.1407,0.1362,0.1338,0.1302,0.1312,0.1359,0.1214,0.1281,0.1212,0.1212,0.1179,0.1181,0.0977,0.1162,0.1163,0.1163,0.1164,0,0.1593,0.1521,0.1539,0.1491,0.1412,0.1433,0.1353,0.1347,0.1328,0.1278,0.1312,0.1264,0.1281,0.1233,0.124,0.1159,0.1148,0.1146,0.1149,0.1143,0.1143,0.1125,0.1134,0.1158,0.1159,0.116,0.1161,0,0.1435,0.1445,0.1363,0.1351,0.1346,0.1287,0.1276,0.1229,0.1231,0.1167,0.1153,0.1155,0.11,0.1107,0.1045,0.105,0.095,0.0964,0.0959,0.0962,0.0893,0.0899,0.067,0.0641,0.0846,0.0844,0.0842,0,0.1335,0.1281,0.1263,0.1233,0.122,0.1171,0.1143,0.1162,0.1131,0.1098,0.1055,0.1004,0.0965,0.0875,0.0869,0.0822,0.0834,0.0757,0.0827,0.0822,0.0832,0.0835,0.0829,0.0743,0.074,0.0739,0.0737,0,0.1154,0.1162,0.1122,0.1082,0.1048,0.1017,0.0989,0.0962,0.0979,0.0941,0.0887,0.0857,0.0795,0.0743,0.0699,0.0685,0.0712,0.0715,0.0697,0.0689,0.0689,0.0687,0.0921,0.072,0.0722,0.0723,0.0724,0.0725,0.1022,0.0976,0.0957,0.091,0.0892,0.0865,0.0822,0.0819,0.0775,0.0728,0.0741,0.0679,0.0654,0.0598,0.0579,0.053,0.0558,0.0531,0.0524,0.0517,0.0508,0.0698,0.0522,0.0522,0.0523,0.0523,0.0523,0,0.0843,0.0833,0.079,0.0752,0.0714,0.0747,0.0718,0.0684,0.063,0.0605,0.0566,0.0503,0.0454,0.0444,0.0396,0.0358,0.0369,0.0345,0.0347,0.0343,0.0487,0.0507,0.0336,0.0336,0.0336,0.0336,0.0336,0.0336,0.0746,0.067,0.0675,0.059,0.058,0.0522,0.0502,0.0477,0.0458,0.0387,0.0347,0.0343,0.0323,0.0274,0.0229,0.0228,0.0207,0.0177,0.018,0.0314,0.0333,0.0351,0.037,0.0173,0.0173,0.0041,0.004,0.0039]}]]